User: anonymous
Location: Mentone
(34.5413°N, 85.5351°W)
Time: 21:22:17
(UTC-05:00)
Language:

ADEOS Rocket - Orbit

View from above orbital plane
View from above orbital plane
View from above satellite
View from above satellite

Ground track
Ground track

The orbit data is extracted from the following two-line orbital elements,

1 24279U 96046C   14274.28165073  .00000061  00000-0  12483-3 0  7366
2 24279 098.7360 328.6526 0299208 294.4918 104.7634 13.46991792890977
Epoch (UTC): 01 October 2014 06:45:34
Eccentricity: 0.0299208
inclination: 98.7360°
perigee height: 860 km
apogee height: 1306 km
right ascension of ascending node: 328.6526°
argument of perigee: 294.4918°
revolutions per day: 13.46991792
mean anomaly at epoch: 104.7634°
orbit number at epoch: 89097

The dashed part of the orbit path shows where the satellite is in the earth's shadow,  

DLR